User: anonymous   Login
Location: Waldport
(44.4270°N, 124.0680°W)
Time: 02:16:11
(UTC-08:00)
Language:

Cosmos 1023 Rocket - Orbit

View from above orbital plane
View from above orbital plane
View from above satellite
View from above satellite

Ground track
Ground track

The orbit data is extracted from the following two-line orbital elements,

1 10962U 78063B   17324.47824373 +.00000082 +00000-0 +33331-4 0  9994
2 10962 074.0791 290.3876 0024649 155.7282 204.5041 14.41108864068207
Epoch (UTC): 20 November 2017 11:28:40
Eccentricity: 0.0024649
inclination: 74.0791°
perigee height: 737 km
apogee height: 772 km
right ascension of ascending node: 290.3876°
argument of perigee: 155.7282°
revolutions per day: 14.41108864
mean anomaly at epoch: 204.5041°
orbit number at epoch: 6820

The dashed part of the orbit path shows where the satellite is in the earth's shadow,  

DLR